This is the latest recevied weather packets stored in our database for station/object KF8LO-1. If no packets are shown the sender has not sent any weather packets the latest 1 day(s).
| Time | Temp. | Humidity | Pressure | Rain* | Wind** | Luminosity | Snow |
|---|---|---|---|---|---|---|---|
| 1778004424 | 20° C | 35% | 0 hPa | 0 mm | 1.79 m/s, 250° | - | - |
| 1778004124 | 20° C | 34% | 0 hPa | 0 mm | 3.13 m/s, 295° | - | - |
| 1778003824 | 20° C | 34% | 0 hPa | 0 mm | 5.81 m/s, 261° | - | - |
| 1778003524 | 20° C | 34% | 0 hPa | 0 mm | 2.68 m/s, 298° | - | - |
| 1778003224 | 20° C | 35% | 0 hPa | 0 mm | 2.68 m/s, 271° | - | - |
| 1778002924 | 20° C | 38% | 0 hPa | 0 mm | 7.15 m/s, 292° | - | - |
| 1778002624 | 20° C | 36% | 0 hPa | 0 mm | 2.68 m/s, 324° | - | - |
| 1778002324 | 20° C | 36% | 0 hPa | 0 mm | 3.58 m/s, 251° | - | - |
| 1778002024 | 20° C | 37% | 0 hPa | 0 mm | 2.68 m/s, 331° | - | - |
| 1778001724 | 20° C | 39% | 0 hPa | 0 mm | 4.92 m/s, 288° | - | - |
| 1778001424 | 20° C | 39% | 0 hPa | 0 mm | 1.34 m/s, 257° | - | - |
| 1778001124 | 19.44° C | 39% | 0 hPa | 0 mm | 0.45 m/s, 206° | - | - |
| 1778000824 | 19.44° C | 39% | 0 hPa | 0 mm | 1.34 m/s, 315° | - | - |
| 1778000524 | 19.44° C | 38% | 0 hPa | 0 mm | 4.02 m/s, 306° | - | - |
| 1778000228 | 19.44° C | 39% | 0 hPa | 0 mm | 3.58 m/s, 230° | - | - |
| 1777999924 | 19.44° C | 39% | 0 hPa | 0 mm | 0.89 m/s, 233° | - | - |
| 1777999624 | 18.89° C | 38% | 0 hPa | 0 mm | 3.58 m/s, 282° | - | - |
| 1777999324 | 18.89° C | 41% | 0 hPa | 0 mm | 4.47 m/s, 261° | - | - |
| 1777999024 | 18.89° C | 40% | 0 hPa | 0 mm | 3.58 m/s, 296° | - | - |
| 1777998724 | 18.89° C | 42% | 0 hPa | 0 mm | 1.34 m/s, 153° | - | - |
| 1777998424 | 18.89° C | 42% | 0 hPa | 0 mm | 0.89 m/s, 135° | - | - |
| 1777998124 | 18.89° C | 42% | 0 hPa | 0 mm | 1.34 m/s, 303° | - | - |
| 1777997824 | 18.89° C | 40% | 0 hPa | 0 mm | 5.36 m/s, 257° | - | - |
| 1777997524 | 18.89° C | 40% | 0 hPa | 0 mm | 3.58 m/s, 270° | - | - |
| 1777997224 | 18.89° C | 42% | 0 hPa | 0 mm | 4.02 m/s, 233° | - | - |
* Rain latest hour (hover to see other rain measurements)
** Current wind speed in m/s (hover to see current wind gust speed)